Content
SEND FEEDBACK

Daily
Averages
Monthly
Summary
Philippines

QUEZON CITY, PHILIPPINES


Home > Asia > Philippines
Elevation: 46 meters     Latitude: 14 39N     Longitude: 121 03E

WEATHER
 
SELECT A DAY
Number of Records: 172,573;   Date Range: 7/1/96 - 8/12/14
 
SHARE

PRINT THIS DATA

[ ← Previous Day ]
WEATHER ALMANAC - 22 MAY, 2013
[ Next Day → ]
[ °F ]   °C
Weather ElementAverageHighLow
Temperature30.4 °C35 °C (1:00 pm)27 °C (5:00 am)
Dewpoint25.3 °C26.1 °C (8:00 am)23 °C (10:00 am)
Humidity73.6 %94 % (5:00 am)50 % (2:00 pm)
Barometer1009.8 hPa1012.5 hPa (11:00 pm)1007.1 hPa (3:00 pm)
Wind Speed8.2 km/h22.2 km/h (3:00 pm)
Wind Gust27.8 km/h (1:00 pm)
Weather ElementAverage
Visibility9.8 km
Wind DirectionSE (130 °)

Weather ElementTotal
Precipitation---
Cooling Degree Days12.7 (Base 18.3)
Growing Degree Days21 (Base 10)
Averaged from 31 records on 22 May, 2013
WEATHER CONDITIONS BREAKOUT
WIND DIRECTION BREAKOUT
WEATHER BY HOUR - 22 MAY, 2013
[ °F ]   °C
Local TimeTemperatureDewpointHumidityBarometerVisibilityWind DirectionWind SpeedGust SpeedPrecipitationEventsConditions
1:00 AM28 °C26 °C89 %1011.2 hPa10 kmSSE (160°)5.6 km/hPartly Cloudy
2:00 AM27.8 °C25.6 °C85 %1010.5 hPa9.7 kmSSE (150°)3.5 km/hHaze
2:00 AM28 °C26 °C89 %1010.2 hPa10 kmVariable3.7 km/hPartly Cloudy
3:00 AM28 °C26 °C89 %1009.1 hPa10 kmVariable3.7 km/hPartly Cloudy
4:00 AM28 °C26 °C89 %1009.1 hPa10 kmVariable3.7 km/hPartly Cloudy
5:00 AM27.2 °C25.6 °C88 %1009.8 hPa9.7 kmCalmHaze
5:00 AM27 °C26 °C94 %1009.1 hPa9 kmVariable1.9 km/hScattered Clouds
6:00 AM27 °C26 °C94 %1010.2 hPa9 kmVariable1.9 km/hPartly Cloudy
7:00 AM29 °C26 °C84 %1010.2 hPa9 kmVariable3.7 km/hPartly Cloudy
8:00 AM31.1 °C26.1 °C69 %1010.2 hPa9.7 kmSE (130°)7.2 km/hHaze
8:00 AM31 °C26 °C75 %1010.2 hPa10 kmSE (140°)7.4 km/hPartly Cloudy
9:00 AM32 °C25 °C66 %1010.2 hPa10 kmVariable5.6 km/hPartly Cloudy
10:00 AM33 °C23 °C55 %1010.2 hPa10 kmSW (220°)7.4 km/hPartly Cloudy
11:00 AM32.8 °C25.6 °C58 %1009.8 hPa9.7 kmWest (280°)10.8 km/hHaze
11:00 AM33 °C25 °C63 %1009.1 hPa10 kmWest (280°)11.1 km/hScattered Clouds
12:00 PM33 °C25 °C63 %1009.1 hPa10 kmWest (270°)11.1 km/hPartly Cloudy
1:00 PM35 °C24 °C53 %1008.1 hPa10 kmVariable9.3 km/h27.8 km/hPartly Cloudy
2:00 PM33.9 °C24.4 °C50 %1008.5 hPa9.7 kmWest (270°)18 km/hHaze
2:00 PM35 °C24 °C53 %1008.1 hPa10 kmVariable9.3 km/h27.8 km/hPartly Cloudy
3:00 PM32 °C26 °C70 %1007.1 hPa10 kmWSW (240°)22.2 km/hScattered Clouds
4:00 PM32 °C26 °C70 %1007.1 hPa10 kmSW (220°)14.8 km/hScattered Clouds
5:00 PM31.7 °C25 °C60 %1008.1 hPa9.7 kmSW (220°)10.8 km/hHaze
5:00 PM31 °C25 °C70 %1008.1 hPa10 kmSW (220°)13 km/hMostly Cloudy
6:00 PM31 °C25 °C70 %1008.1 hPa10 kmWSW (250°)18.5 km/hScattered Clouds
7:00 PM31 °C26 °C75 %1009.1 hPa10 kmWSW (250°)14.8 km/hScattered Clouds
8:00 PM29.4 °C25.6 °C75 %1011.2 hPa9.7 kmESE (120°)7.2 km/hPartly Cloudy
8:00 PM29 °C26 °C84 %1011.2 hPa10 kmESE (120°)7.4 km/hScattered Clouds
9:00 PM29 °C25 °C79 %1011.2 hPa10 kmENE (70°)11.1 km/hScattered Clouds
10:00 PM29 °C23 °C70 %1012.2 hPa10 kmVariable3.7 km/hScattered Clouds
11:00 PM29.4 °C25.6 °C73 %1012.5 hPa9.7 kmWNW (290°)3.5 km/hHaze
11:00 PM29 °C25 °C79 %1012.2 hPa10 kmVariable3.7 km/hMostly Cloudy
Hourly data recorded from RPLL, located 0 kilometers away from Quezon City, Philippines







STORIES FROM OUR PARTNERS